This is the latest recevied weather packets stored in our database for station/object IZ1MEU-13. If no packets are shown the sender has not sent any weather packets the latest 1 day(s).
| Time | Temp. | Humidity | Pressure | Rain* | Wind** | Luminosity | Snow |
|---|---|---|---|---|---|---|---|
| 1777758177 | 13.89° C | 38% | 1023.2 hPa | - | - | - | - |
| 1777756973 | 13.89° C | 37% | 1023.1 hPa | - | - | - | - |
| 1777755768 | 13.89° C | 37% | 1023.2 hPa | - | - | - | - |
| 1777754564 | 13.89° C | 36% | 1023.2 hPa | - | - | - | - |
| 1777753360 | 13.89° C | 36% | 1023.3 hPa | - | - | - | - |
| 1777752155 | 13.89° C | 35% | 1023.2 hPa | - | - | - | - |
| 1777750951 | 13.89° C | 35% | 1023.1 hPa | - | - | - | - |
| 1777749746 | 13.89° C | 36% | 1022.9 hPa | - | - | - | - |
| 1777748542 | 13.89° C | 36% | 1022.7 hPa | - | - | - | - |
| 1777747338 | 14.44° C | 36% | 1022.6 hPa | - | - | - | - |
| 1777746133 | 15° C | 35% | 1022.6 hPa | - | - | - | - |
| 1777744929 | 16.67° C | 33% | 1022.6 hPa | - | - | - | - |
| 1777743724 | 17.78° C | 32% | 1022.7 hPa | - | - | - | - |
| 1777743283 | 18.33° C | 31% | 1022.7 hPa | - | - | - | - |
| 1777742079 | 19.44° C | 30% | 1022.9 hPa | - | - | - | - |
| 1777740874 | 20° C | 29% | 1022.9 hPa | - | - | - | - |
| 1777739670 | 21.11° C | 28% | 1023 hPa | - | - | - | - |
| 1777738466 | 21.67° C | 28% | 1023.2 hPa | - | - | - | - |
| 1777737262 | 22.22° C | 28% | 1023.4 hPa | - | - | - | - |
| 1777736058 | 22.22° C | 31% | 1023.6 hPa | - | - | - | - |
| 1777734854 | 22.22° C | 29% | 1023.6 hPa | - | - | - | - |
| 1777733650 | 21.67° C | 32% | 1023.8 hPa | - | - | - | - |
| 1777732446 | 21.11° C | 32% | 1024.2 hPa | - | - | - | - |
| 1777731242 | 20.56° C | 33% | 1024.5 hPa | - | - | - | - |
| 1777730038 | 20° C | 33% | 1024.6 hPa | - | - | - | - |
* Rain since midnight (hover to see other rain measurements)
** Current wind speed in m/s (hover to see current wind gust speed)